{"data":{"norad_id":45406,"intl_designator":"2020-019AY","name":"STARLINK-1265","alt_names":[],"object_type":"PAYLOAD","status":"ACTIVE","operator":null,"country":"US","launch_date":"2020-03-18","launch_site_code":"AFETR","launch_vehicle":null,"mission":null,"orbit_class":"UNKNOWN","rcs_meters":null,"size_class":null,"mass_kg":null,"dimensions":null,"purposes":["comms"],"wikipedia_slug":null,"has_3d_model":false,"image_url":null,"decayed_at":null,"tle_current":{"epoch":"2026-09-19T18:12:41.498496Z","epoch_age_seconds":78492,"freshness":"FRESH","line1":"1 45406U 20019AY  26262.75881364  .00044601  00000+0  82638-3 0  9995","line2":"2 45406  53.1518 295.8367 0004705  17.9722 342.1452 15.48564621359851","mean_motion":15.48564621,"eccentricity":0.0004705,"inclination_deg":53.1518,"raan_deg":295.8367,"arg_perigee_deg":17.9722,"mean_anomaly_deg":342.1452,"bstar":0.00082638,"rev_number":35985,"period_min":92.98933867352,"perigee_km":417.725277183,"apogee_km":424.1231938056,"semimajor_km":6799.0612354943,"source":"CELESTRAK","updated_at":"2026-09-20T09:00:38.234304Z"}}}